Location: Banff
(51.1670°N, 115.5670°W)
Time: 11:12:44
(UTC-07:00)

Daily predictions for brighter satellites

Satellite Brightness Start Highest point End
(mag) Time Altitude Azimuth Time Altitude Azimuth Time Altitude Azimuth
Tsikada Rocket 4.1 17:40:27 10° S 17:46:50 75° E 17:53:15 10° NNE
Cosmos 2360 Rocket 2.9 17:49:04 10° SW 17:54:34 54° NW 18:00:07 10° NNE
Cosmos 1980 Rocket 4.3 17:52:50 10° WNW 17:56:25 17° NNW 18:00:01 10° N
Cosmos 2333 4.2 17:50:59 10° SSW 17:56:35 76° ESE 18:02:12 10° NNE
Lacrosse 5 rocket 2.1 17:53:37 10° WNW 17:57:14 50° SW 18:01:00 10° SE
Cosmos 1634 Rocket 4.0 17:52:30 10° N 17:58:43 70° ENE 18:04:50 10° SSE
ATLAS 5 CENTAUR R/B 3.5 17:55:59 10° NW 18:00:22 24° N 18:05:07 10° ENE
Cosmos 1980 4.3 17:55:11 10° S 18:00:25 39° ESE 18:05:40 10° NE
CORIOLIS 4.1 17:55:18 10° SSE 18:00:39 79° ENE 18:06:03 10° NNW
Aureole 2 Rocket 4.1 18:00:03 10° SSE 18:03:04 22° E 18:06:15 10° NE
Cosmos 1766 Rocket 4.1 18:00:08 10° SSW 18:04:32 62° WNW 18:08:57 10° N
IDEFIX/ARIANE 42P 2.8 17:59:34 10° S 18:04:47 78° WSW 18:10:05 10° NNW
Cosmos 44 Rocket 3.6 18:00:01 10° SSW 18:05:00 55° SE 18:09:55 10° NE
USA 116 3.3 18:05:28 10° NNE 18:08:37 52° E 18:11:39 10° S
Cosmos 372 Rocket 3.9 18:03:51 10° NNW 18:09:00 82° ENE 18:14:06 10° SSE
Cosmos 1763 Rocket 3.6 18:05:10 10° SSW 18:10:23 82° WNW 18:15:33 10° NNE
Cosmos 1707 Rocket 4.4 18:07:01 10° N 18:10:47 28° ENE 18:14:32 10° SE
Cosmos 1626 3.9 18:09:31 10° ESE 18:11:29 14° E 18:12:55 12° ENE
AQUARIUS 4.5 18:08:12 10° S 18:12:41 74° WSW 18:17:13 10° NNW
COSMO-SKYMED 1 3.5 18:08:55 10° NE 18:12:42 28° E 18:16:27 10° SSE
Cosmos 1328 3.9 18:11:18 10° S 18:15:09 53° E 18:19:02 10° NNE
Timation 1 Rocket 4.3 18:09:54 10° NNW 18:15:57 76° ENE 18:21:58 10° SE
MSX 3.9 18:10:15 10° SSE 18:15:59 89° WSW 18:21:47 10° NNW
YAOGAN 1 2.8 18:12:35 10° S 18:16:55 77° WSW 18:21:17 10° NNW
CZ-2C R/B 4.4 18:13:35 10° N 18:18:18 60° WNW 18:22:59 10° SSW
Cosmos 1943 Rocket 3.9 18:15:34 10° N 18:18:34 14° NNE 18:21:01 11° NE
Cosmos 2219 Rocket 2.2 18:13:10 10° SSW 18:18:48 75° ESE 18:24:26 10° NNE
Cosmos 540 Rocket 3.7 18:14:04 10° S 18:19:01 49° ESE 18:24:01 10° NNE
Cosmos 1726 2.2 18:17:06 10° N 18:20:53 88° W 18:24:40 10° S
Cosmos 2333 Rocket 2.3 18:16:19 10° SSW 18:21:53 64° ESE 18:27:30 10° NE
Cosmos 1455 3.2 18:19:52 10° NNE 18:23:05 25° ENE 18:26:16 10° SE
Cosmos 2151 3.1 18:20:20 10° S 18:24:25 53° E 18:28:32 10° NNE
CZ-4 R/B 2.7 18:21:54 10° S 18:25:37 42° W 18:29:24 10° NNW
Cosmos 1674 3.7 18:22:05 10° SSW 18:25:48 49° WNW 18:29:35 10° N
Cosmos 2322 Rocket 4.2 18:21:45 10° W 18:25:59 21° NW 18:30:14 10° NNE
Cosmos 2084 Rocket 4.4 18:22:51 10° NNW 18:26:00 24° NNE 18:27:58 16° ENE
ATLAS 3B R/B 3.9 18:19:48 10° WNW 18:26:05 30° N 18:31:30 12° NE
Cosmos 2278 Rocket 2.9 18:21:01 10° NW 18:26:37 59° WSW 18:32:10 10° S
CZ-4C R/B 3.7 18:25:36 10° NW 18:31:02 29° N 18:35:48 15° ENE
Cosmos 1703 4.1 18:28:16 10° SSE 18:31:38 28° E 18:34:50 11° NNE
Resurs 01 Rocket 2.8 18:28:22 10° ESE 18:31:46 22° ENE 18:35:10 10° N
SJ-6B 3.6 18:28:55 10° SE 18:32:37 33° ENE 18:36:21 10° N
USA 215 3.3 18:27:10 10° ESE 18:33:45 87° NNE 18:40:21 10° WNW
Lacrosse 5 2.5 18:29:50 10° W 18:34:42 44° N 18:38:18 17° ENE
Cosmos 1900 4.4 18:33:10 10° NW 18:38:08 81° SW 18:43:08 10° SSE
Cosmos 1300 3.6 18:39:14 10° NNW 18:42:59 52° W 18:46:43 10° S
Cosmos 1151 Rocket 3.9 18:40:57 10° NNW 18:45:07 51° W 18:49:17 10° S
Cosmos 2279 Rocket 4.0 18:39:52 10° N 18:46:08 90° ESE 18:52:23 10° S
Cosmos 1242 Rocket 4.1 18:43:22 10° NNE 18:44:52 18° NE 18:44:52 18° NE
CZ-2C R/B 4.3 18:46:23 10° SSW 18:50:46 32° W 18:55:04 10° NNW
Cosmos 783 Rocket 4.5 18:45:45 10° SSW 18:51:02 69° ESE 18:56:20 10° NNE
Lacrosse 4 Rocket 1.4 18:47:47 10° NNW 18:51:48 55° NE 18:54:54 16° SE
Blok-2BL 3.8 18:48:53 10° NW 18:52:06 39° NE 18:52:57 32° ENE
Cosmos 2369 Rocket 3.0 18:49:50 10° NNW 18:54:50 30° NE 18:56:59 24° E
HJ-1C 4.5 18:56:04 27° NE 18:56:04 27° NE 18:58:25 10° N
Cosmos 2237 Rocket 2.1 18:50:00 10° SSW 18:55:38 87° ESE 19:01:01 12° NNE
SL-14 R/B 3.5 18:53:30 10° SSW 18:57:27 71° WNW 19:01:29 10° N
Cosmos 2242 Rocket 3.9 18:53:20 10° N 18:57:33 42° ENE 19:01:46 10° SE
Cosmos 1340 Rocket 2.6 18:55:10 10° S 18:59:05 72° E 19:02:56 10° NNE
Cosmos 1484 Rocket 3.9 18:55:49 10° S 18:59:39 48° W 19:03:34 10° NNW
DNEPR-1 R/B 4.3 18:53:44 10° SW 19:00:15 80° NW 19:04:15 19° NE
Cosmos 44 3.3 18:55:21 10° SW 19:00:34 89° N 19:03:56 21° NE
SKYMED 2 3.5 18:56:38 10° NNE 19:01:01 79° ESE 19:05:21 10° S
Cosmos 1184 Rocket 4.4 18:59:32 10° SSE 19:01:08 21° SE 19:01:08 21° SE
SL-16 R/B 2.4 18:58:01 10° S 19:03:27 49° ESE 19:06:55 22° NE
COSMOS 2428 3.9 18:58:37 10° WSW 19:03:56 38° NW 19:09:16 10° NNE
DMSP B5D1-3 4.5 18:59:32 10° NNE 19:04:38 63° ESE 19:09:41 10° S
Cosmos 1805 Rocket 3.5 19:00:45 10° S 19:05:09 66° E 19:09:37 10° NNE
ALOS 2.5 19:01:27 10° SE 19:05:51 44° ENE 19:10:19 10° N
Meteor 1-28 Rocket 3.0 19:04:41 16° NNE 19:07:34 68° ESE 19:11:16 10° S
CENTAUR R/B 3.3 19:02:06 10° WSW 19:08:23 52° NNW 19:14:05 16° NE
Cosmos 1869 3.5 19:05:14 10° N 19:09:12 49° ENE 19:13:07 10° SSE
Cosmos 2084 3.7 19:05:33 10° WSW 19:09:19 53° NW 19:11:06 27° NNE
Spot 2 Rocket 3.7 19:04:50 10° SE 19:09:38 47° ENE 19:14:28 10° N
Cosmos 2297 4.4 19:05:01 10° NW 19:10:35 56° WSW 19:16:09 10° S
Thor Agena Rocket 4.3 19:05:47 10° N 19:10:55 55° WNW 19:15:58 10° SW
Nadezhda 4 Rocket 4.0 19:05:19 10° S 19:11:26 57° E 19:17:37 10° NNE
Cosmos 2058 3.3 19:09:15 10° SSW 19:13:19 64° WNW 19:17:25 10° N
USA 229 DEB 4.4 19:09:32 10° S 19:15:29 33° ESE 19:17:14 29° E
USA 229 4.4 19:09:40 10° S 19:15:36 32° ESE 19:17:17 29° E
Cosmos 1461 3.0 19:13:00 10° SSW 19:17:01 51° SE 19:17:37 46° E
Iridium 4 Rocket 3.4 19:14:34 10° SSE 19:18:11 39° ESE 19:18:11 39° ESE
Sich 1 3.0 19:15:46 10° S 19:20:09 62° E 19:23:00 21° NNE
Abrixas 3.7 19:20:07 10° SW 19:22:21 31° S 19:22:21 31° S
Cosmos 1538 Rocket 4.0 19:19:24 10° S 19:24:38 63° ESE 19:27:24 28° NE
Orbus 7S? 4.3 19:23:08 10° WNW 19:26:52 69° SW 19:34:30 12° SE
Cosmos 1633 Rocket 2.9 19:24:50 10° S 19:29:12 68° E 19:31:03 33° NNE
Cosmos 1092 Rocket 4.0 19:26:41 10° S 19:32:53 60° E 19:39:08 10° NNE
Cosmos 1356 Rocket 3.2 19:30:05 10° SSW 19:34:04 88° W 19:35:32 38° N
FENGYUN 3A 3.5 19:28:43 10° SSE 19:34:05 76° ENE 19:39:29 10° NNW
FREGAT/IRIS 3.4 19:31:29 10° S 19:34:29 53° W 19:37:31 10° NNW
Cosmos 1867 3.8 19:31:33 10° NW 19:36:51 47° NE 19:37:30 45° ENE
Aureole 2 Rocket 3.8 19:34:30 10° SW 19:38:16 44° WNW 19:40:33 22° N
Cosmos 2360 Rocket 4.4 19:36:17 10° WNW 19:39:54 17° NNW 19:43:31 10° N
Helios 1A 4.3 19:46:56 29° N 19:46:56 29° N 19:49:08 10° N
Aureole 1 Rocket 4.0 19:40:04 10° S 19:45:49 65° ESE 19:50:43 22° NNE
Cosmos 1862 Rocket 3.7 19:41:37 10° N 19:45:15 56° NNE 19:45:15 56° NNE
Cosmos 972 Rocket 4.0 19:41:16 10° NNW 19:46:21 60° ENE 19:46:54 57° E
Cosmos 1626 2.7 19:42:43 10° SSW 19:46:24 56° WNW 19:47:40 36° NNW
ATLAS 5 CENTAUR R/B 2.7 19:41:02 10° NW 19:46:26 43° NNE 19:46:56 42° NE
SL-19 R/B 4.4 19:40:47 10° SSE 19:46:34 75° WSW 19:52:10 10° NNW
COSMO-SKYMED 1 4.0 19:44:55 10° N 19:48:57 38° WNW 19:52:57 10° SW
Cosmos 2195 Rocket 4.4 19:50:59 10° S 19:56:59 60° E 20:03:03 10° NNE
Cosmos 1455 4.1 19:55:27 10° NNW 19:58:49 31° W 20:02:11 10° SSW
Cosmos 773 Rocket 3.8 19:57:02 10° SSW 20:02:13 85° ESE 20:02:33 78° NE
Cosmos 2219 Rocket 3.9 19:58:35 10° W 20:03:20 27° NW 20:07:12 14° N
Cosmos 1943 Rocket 2.9 19:58:33 10° NNW 20:02:33 37° NNE 20:02:33 37° NNE
Cosmos 1666 Rocket 4.5 20:00:24 10° SSW 20:04:37 47° WNW 20:07:22 20° N
Cosmos 2084 Rocket 4.4 20:02:05 10° NW 20:04:33 39° NW 20:04:33 39° NW
Cosmos 2333 Rocket 3.8 20:01:36 10° WSW 20:06:35 31° NW 20:10:16 16° N
Resurs 01 Rocket 2.2 20:04:23 15° S 20:07:55 56° W 20:12:19 10° NNW
Cosmos 1603 4.2 20:02:36 10° S 20:06:32 43° SSE 20:06:32 43° SSE
Cosmos 2263 4.3 20:02:49 10° NNW 20:07:42 57° NNE 20:07:42 57° NNE
Resurs 1-3 3.9 20:09:57 63° WSW 20:10:07 63° WSW 20:14:30 10° NNW
Cosmos 1417 Rocket 4.3 20:09:05 10° N 20:15:19 79° E 20:15:54 72° SE
USA 215 4.4 20:12:20 15° SSE 20:17:13 39° SW 20:23:17 10° WNW
Lacrosse 5 2.5 20:13:25 10° WNW 20:17:31 47° NNW 20:17:31 47° NNW
ATLAS 3B R/B 3.4 20:12:08 10° NW 20:18:43 38° NNE 20:18:46 38° NNE
CZ-4C R/B 3.0 20:14:35 10° NW 20:21:00 51° NNE 20:21:00 51° NNE
Lacrosse 4 Rocket 3.7 20:27:09 10° WNW 20:30:10 20° WSW 20:31:20 18° SW
Cosmos 1627 Rocket 4.4 20:25:16 10° S 20:31:28 83° W 20:37:38 10° N
Cosmos 2369 Rocket 2.5 20:33:41 10° NW 20:38:50 62° W 20:38:50 62° W
Cosmos 2237 Rocket 4.1 20:35:52 10° W 20:40:27 25° NW 20:42:52 19° N
ALOS 4.2 20:39:30 10° SSW 20:43:29 27° W 20:47:29 10° NW
SL-16 R/B 3.4 20:42:31 10° WSW 20:47:45 38° NW 20:48:50 34° NNW
S3M 4.3 20:42:44 10° NNW 20:47:56 60° NNW 20:47:56 60° NNW
CENTAUR R/B 4.0 20:54:36 10° WNW 21:00:42 32° N 21:01:17 32° N
USA 229 DEB 4.0 20:59:04 10° SW 21:04:43 61° WSW 21:04:43 61° WSW
USA 229 4.1 20:59:10 10° SW 21:04:46 60° WSW 21:04:46 60° WSW
ATLAS 5 CENTAUR R/B 3.9 21:25:42 10° NW 21:28:31 30° WNW 21:28:31 30° WNW
Cosmos 1943 Rocket 4.5 21:42:26 10° NW 21:44:07 19° NW 21:44:07 19° NW
CZ-4C R/B 4.3 22:03:08 10° NW 22:06:12 29° WNW 22:06:12 29° WNW
ATLAS 3B R/B 4.4 22:03:12 10° NW 22:06:01 26° NW 22:06:01 26° NW
